Stündliche Wetter Barnukovka

Heute, 30 Oktober, Freitag

Zeit Temperatur Niederschläge Wind Luftdruck Luftfeuchtigkeit
00:00 +2°C° 0 mm 3 m/S 758 mmHg 82%
01:00 +2°C° 0 mm 3 m/S 758 mmHg 81%
02:00 +2°C° 0 mm 3 m/S 758 mmHg 80%
03:00 +2°C° 0 mm 3 m/S 758 mmHg 77%
04:00 +2°C° 0.1 mm 3 m/S 757 mmHg 77%
05:00 +2°C° 0.1 mm 3 m/S 757 mmHg 77%
06:00 +2°C° 0.1 mm 3 m/S 757 mmHg 77%
07:00 +3°C° 0.1 mm 3 m/S 757 mmHg 75%
08:00 +3°C° 0.1 mm 3 m/S 757 mmHg 73%
09:00 +4°C° 0 mm 4 m/S 757 mmHg 70%
10:00 +4°C° 0 mm 4 m/S 757 mmHg 65%
11:00 +5°C° 0 mm 4 m/S 756 mmHg 60%
12:00 +6°C° 0 mm 4 m/S 756 mmHg 55%
13:00 +7°C° 0 mm 4 m/S 756 mmHg 54%
14:00 +7°C° 0 mm 4 m/S 756 mmHg 54%
15:00 +7°C° 0 mm 4 m/S 756 mmHg 53%
16:00 +6°C° 0.1 mm 4 m/S 755 mmHg 57%
17:00 +6°C° 0.1 mm 4 m/S 755 mmHg 61%
18:00 +5°C° 0.1 mm 3 m/S 755 mmHg 65%
19:00 +5°C° 0.1 mm 3 m/S 755 mmHg 67%
20:00 +5°C° 0.1 mm 3 m/S 755 mmHg 69%
21:00 +5°C° 0.1 mm 3 m/S 755 mmHg 71%
22:00 +5°C° 0.1 mm 3 m/S 754 mmHg 70%
23:00 +5°C° 0.1 mm 3 m/S 754 mmHg 69%

Morgen, 31 Oktober, Samstag

Zeit Temperatur Niederschläge Wind Luftdruck Luftfeuchtigkeit
00:00 +5°C° 0.1 mm 3 m/S 754 mmHg 68%
01:00 +6°C° 0.1 mm 2 m/S 754 mmHg 67%
02:00 +6°C° 0.1 mm 2 m/S 754 mmHg 66%
03:00 +6°C° 0.1 mm 2 m/S 753 mmHg 65%
04:00 +6°C° 0 mm 2 m/S 753 mmHg 64%
05:00 +6°C° 0 mm 2 m/S 753 mmHg 64%
06:00 +6°C° 0 mm 2 m/S 753 mmHg 63%
07:00 +6°C° 0 mm 2 m/S 753 mmHg 63%
08:00 +7°C° 0 mm 2 m/S 753 mmHg 63%
09:00 +7°C° 0 mm 2 m/S 753 mmHg 63%
10:00 +6°C° 0.6 mm 2 m/S 753 mmHg 70%
11:00 +6°C° 0.6 mm 2 m/S 753 mmHg 77%
12:00 +5°C° 0.6 mm 2 m/S 753 mmHg 85%
13:00 +5°C° 0.5 mm 2 m/S 753 mmHg 87%
14:00 +5°C° 0.5 mm 2 m/S 753 mmHg 89%
15:00 +6°C° 0.5 mm 2 m/S 753 mmHg 91%
16:00 +6°C° 0.1 mm 2 m/S 753 mmHg 90%
17:00 +5°C° 0.1 mm 2 m/S 753 mmHg 89%
18:00 +5°C° 0.1 mm 2 m/S 753 mmHg 88%
19:00 +7°C° 0.1 mm 1 m/S 754 mmHg 87%
20:00 +7°C° 0.1 mm 1 m/S 754 mmHg 85%
21:00 +7°C° 0.1 mm 1 m/S 754 mmHg 84%
22:00 +7°C° 0 mm 1 m/S 754 mmHg 83%
23:00 +7°C° 0 mm 1 m/S 754 mmHg 82%

übermorgen, 1 November, Sonntag

Zeit Temperatur Niederschläge Wind Luftdruck Luftfeuchtigkeit
00:00 +7°C° 0 mm 1 m/S 754 mmHg 81%
01:00 +7°C° 0 mm 1 m/S 754 mmHg 82%
02:00 +6°C° 0 mm 2 m/S 754 mmHg 83%
03:00 +6°C° 0 mm 2 m/S 754 mmHg 84%
04:00 +5°C° 0 mm 2 m/S 755 mmHg 87%
05:00 +5°C° 0 mm 2 m/S 755 mmHg 91%
06:00 +5°C° 0 mm 2 m/S 755 mmHg 94%
07:00 +5°C° 0 mm 2 m/S 755 mmHg 92%
08:00 +5°C° 0 mm 3 m/S 755 mmHg 91%
09:00 +5°C° 0 mm 3 m/S 756 mmHg 89%
10:00 +6°C° 0 mm 4 m/S 756 mmHg 85%
11:00 +7°C° 0 mm 4 m/S 756 mmHg 81%
12:00 +8°C° 0 mm 4 m/S 756 mmHg 78%
13:00 +8°C° 0 mm 4 m/S 756 mmHg 77%
14:00 +8°C° 0 mm 4 m/S 756 mmHg 77%
15:00 +8°C° 0 mm 4 m/S 756 mmHg 76%
16:00 +7°C° 0 mm 4 m/S 756 mmHg 80%
17:00 +7°C° 0 mm 4 m/S 756 mmHg 84%
18:00 +6°C° 0 mm 4 m/S 756 mmHg 87%
19:00 +5°C° 0 mm 4 m/S 756 mmHg 88%
20:00 +5°C° 0 mm 4 m/S 756 mmHg 89%
21:00 +5°C° 0 mm 5 m/S 756 mmHg 89%
22:00 +5°C° 0.2 mm 5 m/S 756 mmHg 90%
23:00 +5°C° 0.2 mm 5 m/S 756 mmHg 90%

2 November, Montag

Zeit Temperatur Niederschläge Wind Luftdruck Luftfeuchtigkeit
00:00 +5°C° 0.2 mm 5 m/S 756 mmHg 90%
01:00 +5°C° 0 mm 5 m/S 756 mmHg 91%
02:00 +5°C° 0 mm 5 m/S 756 mmHg 91%
03:00 +5°C° 0 mm 5 m/S 756 mmHg 92%
04:00 +3°C° 0 mm 5 m/S 756 mmHg 92%
05:00 +3°C° 0 mm 5 m/S 757 mmHg 93%
06:00 +3°C° 0 mm 5 m/S 757 mmHg 94%
07:00 +3°C° 0 mm 5 m/S 757 mmHg 92%
08:00 +5°C° 0 mm 5 m/S 757 mmHg 90%
09:00 +5°C° 0 mm 5 m/S 757 mmHg 88%
10:00 +6°C° 0 mm 5 m/S 757 mmHg 84%
11:00 +7°C° 0 mm 5 m/S 757 mmHg 79%
12:00 +8°C° 0 mm 5 m/S 757 mmHg 75%
13:00 +8°C° 0 mm 5 m/S 757 mmHg 75%
14:00 +8°C° 0 mm 5 m/S 757 mmHg 75%
15:00 +8°C° 0 mm 4 m/S 757 mmHg 75%
16:00 +8°C° 0 mm 4 m/S 758 mmHg 79%
17:00 +7°C° 0 mm 4 m/S 758 mmHg 83%
18:00 +6°C° 0 mm 4 m/S 758 mmHg 87%
19:00 +6°C° 0 mm 4 m/S 758 mmHg 88%
20:00 +5°C° 0 mm 4 m/S 758 mmHg 89%
21:00 +5°C° 0 mm 4 m/S 759 mmHg 90%
22:00 +5°C° 0 mm 4 m/S 759 mmHg 90%
23:00 +5°C° 0 mm 4 m/S 759 mmHg 91%

3 November, Dienstag

Zeit Temperatur Niederschläge Wind Luftdruck Luftfeuchtigkeit
00:00 +4°C° 0 mm 4 m/S 759 mmHg 92%
01:00 +4°C° 0 mm 4 m/S 759 mmHg 93%
02:00 +4°C° 0 mm 4 m/S 759 mmHg 94%
03:00 +4°C° 0 mm 3 m/S 760 mmHg 95%
04:00 +3°C° 0 mm 4 m/S 760 mmHg 95%
05:00 +3°C° 0 mm 4 m/S 760 mmHg 95%
06:00 +3°C° 0 mm 4 m/S 760 mmHg 95%
07:00 +2°C° 0 mm 5 m/S 760 mmHg 92%
08:00 +2°C° 0 mm 5 m/S 760 mmHg 88%
09:00 +3°C° 0 mm 5 m/S 761 mmHg 85%
10:00 +5°C° 0 mm 5 m/S 761 mmHg 80%
11:00 +5°C° 0 mm 4 m/S 761 mmHg 75%
12:00 +6°C° 0 mm 4 m/S 761 mmHg 70%
13:00 +6°C° 0 mm 4 m/S 761 mmHg 68%
14:00 +6°C° 0 mm 4 m/S 761 mmHg 67%
15:00 +6°C° 0 mm 4 m/S 761 mmHg 66%
16:00 +7°C° 0 mm 3 m/S 761 mmHg 68%
17:00 +5°C° 0 mm 3 m/S 761 mmHg 70%
18:00 +4°C° 0 mm 3 m/S 761 mmHg 72%
19:00 +4°C° 0 mm 3 m/S 761 mmHg 73%
20:00 +4°C° 0 mm 3 m/S 762 mmHg 73%
21:00 +4°C° 0 mm 2 m/S 762 mmHg 74%
22:00 +4°C° 0 mm 2 m/S 762 mmHg 76%
23:00 +4°C° 0 mm 2 m/S 762 mmHg 77%

4 November, Mittwoch

Zeit Temperatur Niederschläge Wind Luftdruck Luftfeuchtigkeit
00:00 +4°C° 0 mm 2 m/S 762 mmHg 79%
01:00 +4°C° 0 mm 2 m/S 762 mmHg 80%
02:00 +4°C° 0 mm 2 m/S 762 mmHg 80%
03:00 +4°C° 0 mm 2 m/S 762 mmHg 81%
04:00 +4°C° 0 mm 2 m/S 761 mmHg 81%
05:00 +3°C° 0 mm 3 m/S 761 mmHg 81%
06:00 +3°C° 0 mm 3 m/S 761 mmHg 80%
07:00 +4°C° 0 mm 3 m/S 761 mmHg 79%
08:00 +4°C° 0 mm 3 m/S 761 mmHg 77%
09:00 +5°C° 0 mm 4 m/S 761 mmHg 75%
10:00 +5°C° 0 mm 4 m/S 761 mmHg 72%
11:00 +6°C° 0 mm 4 m/S 761 mmHg 70%
12:00 +7°C° 0 mm 4 m/S 762 mmHg 67%
13:00 +7°C° 0 mm 4 m/S 761 mmHg 67%
14:00 +7°C° 0 mm 4 m/S 761 mmHg 67%
15:00 +7°C° 0 mm 4 m/S 761 mmHg 67%
16:00 +6°C° 0 mm 4 m/S 761 mmHg 71%
17:00 +5°C° 0 mm 3 m/S 761 mmHg 75%
18:00 +5°C° 0 mm 3 m/S 761 mmHg 79%
19:00 +4°C° 0 mm 3 m/S 761 mmHg 80%
20:00 +4°C° 0 mm 3 m/S 761 mmHg 81%
21:00 +4°C° 0 mm 3 m/S 762 mmHg 82%
22:00 +4°C° 0 mm 3 m/S 761 mmHg 82%
23:00 +4°C° 0 mm 3 m/S 761 mmHg 83%
Mehr zeigen